Regional Weather Roundup
Issued by NWS

Home | Current Version | Previous Version | Text Only | Print | Product List | Glossary Off
Versions: 1 2 3 4 5 6 7 8 9 10 11 12 13 14 15 16 17 18 19 20 21 22 23 24 25 26 27 28 29 30 31 32 33 34 35 36 37 38 39 40 41 42 43 44 45 46 47 48 49 50

000
ASUS43 KOAX 231710
RWRNE

WEATHER ROUNDUP FOR NEBRASKA
NATIONAL WEATHER SERVICE OMAHA NE
1200 PM CDT TUE MAY 23 2017

NOTES: SATELLITE DATA IS BEING USED TO AUGMENT CLOUD COVER ABOVE
       12000 FEET.
       "FAIR" INDICATES FEW OR NO CLOUDS BELOW 12,000 FEET WITH NO
       SIGNIFICANT WEATHER AND/OR OBSTRUCTIONS TO VISIBILITY.

  * THESE STATIONS DO NOT REPORT WEATHER SUCH AS RAIN...SNOW OR FOG.

NEZ001>004-019>022-054>056-231800-
NEBRASKA PANHANDLE

CITY           SKY/WX    TMP DP  RH WIND       PRES   REMARKS
SCOTTSBLUFF    CLOUDY    55  35  47 N17G28    30.14F
ALLIANCE       CLOUDY    54  37  52 NW15G24   30.12F
CHADRON        SUNNY     58  41  53 N12       30.13F
GORDON         PTSUNNY   54  35  48 N17G24    30.10F
KIMBALL        CLOUDY    53  34  49 N16       30.17F
SIDNEY         CLOUDY    53  37  54 N16G25    30.13F
$$

NEZ057>060-069>072-079>082-231800-
SOUTHWEST NEBRASKA

CITY           SKY/WX    TMP DP  RH WIND       PRES   REMARKS
NORTH PLATTE   PTSUNNY   56  36  47 NW20G35   30.04F
IMPERIAL       CLOUDY    59  39  47 N22G30    30.09F
LEXINGTON      PTSUNNY   57  42  57 N26       30.01F
MCCOOK         CLOUDY    65  40  39 N25G35    30.03F
OGALLALA       CLOUDY    57  37  47 N17G26    30.10F
$$

NEZ005>010-023>029-035>040-094-231800-
NORTH CENTRAL NEBRASKA

CITY           SKY/WX    TMP DP  RH WIND       PRES   REMARKS
VALENTINE      CLOUDY    55  36  48 N22G31    30.04S
AINSWORTH      CLOUDY    49  41  75 N17       30.02F
BROKEN BOW     CLOUDY    53  37  54 N23G35    30.00F
O`NEILL        CLOUDY    50  42  73 NW15G23   29.97F
ORD            LGT RAIN  50  40  68 NW16      29.97S
THEDFORD       CLOUDY    57  37  46 N23G36    30.03F
$$

NEZ041-046>049-061>064-073>077-083>087-231800-
SOUTH CENTRAL NEBRASKA

CITY           SKY/WX    TMP DP  RH WIND       PRES   REMARKS
GRAND ISLAND   CLOUDY    57  41  55 NW25G33   29.96S
AURORA         CLOUDY    57  40  54 N18G31    29.94F
HASTINGS       PTSUNNY   59  44  57 N22G29    29.96F
HEBRON         CLOUDY    59  49  68 NW15G21   29.93F
HOLDREGE       PTSUNNY   56  41  56 NW20G28   29.99F
KEARNEY *      CLOUDY    55  37  50 N23       29.99R
YORK           CLOUDY    57  45  62 NW21      29.92F
$$

NEZ011>018-030>034-042>045-231800-
NORTHEAST NEBRASKA

CITY           SKY/WX    TMP DP  RH WIND       PRES   REMARKS
NORFOLK        LGT RAIN  51  44  77 NW17G24   29.91S
ALBION         CLOUDY    54  42  65 N18G25    29.95S
BLAIR          CLOUDY    55  45  71 NW14G20   29.89F
FREMONT        CLOUDY    54  44  69 NW14      29.91S
TEKAMAH        CLOUDY    57  44  62 NW16      29.88F
WAYNE          CLOUDY    51  49  95 NW12      29.91F
$$

NEZ050>053-065>068-078-088>093-231800-
SOUTHEAST NEBRASKA

CITY           SKY/WX    TMP DP  RH WIND       PRES   REMARKS
LINCOLN        CLOUDY    57  45  64 N8        29.92F
OMAHA EPPLEY   CLOUDY    56  44  64 NW15G23   29.89F
BEATRICE       CLOUDY    60  46  60 NW9       29.91S
FALLS CITY     MOSUNNY   62  45  53 NW14G20   29.87F
NEBRASKA CITY  CLOUDY    58  43  56 NW8       29.89F
PLATTSMOUTH    CLOUDY    56  42  57 NW14      29.89F
$$

NEZ044-045-051>053-067-231800-
OMAHA AREA

CITY           SKY/WX    TMP DP  RH WIND       PRES   REMARKS
OMAHA EPPLEY   CLOUDY    56  44  64 NW15G23   29.89F
BLAIR          CLOUDY    55  45  71 NW14G20   29.89F
FREMONT        CLOUDY    54  44  69 NW14      29.91S
MILLARD        CLOUDY    57  46  66 NW13      29.90F
OFFUTT AFB     CLOUDY    57  44  63 NW13      29.88F
PLATTSMOUTH    CLOUDY    56  42  57 NW14      29.89F
WAHOO          CLOUDY    55  44  65 N14G21    29.91S
$$




USA.gov is the U.S. government's official web portal to all federal, state and local government web resources and services.